Index of /archives/GNU

[ICO]NameLast modifiedSizeDescription

[PARENTDIR]Parent Directory  -  
[   ]gnu.ps.gz1993-08-15 16:00 473K 
[   ]button.14.0.shar1994-10-28 16:00 136K 
[   ]button.N.MM.shar1994-10-28 16:00 136K 
[TXT]=README-about-.diff-files1997-03-20 17:00 745  
[   ]graphics.README1997-07-17 16:00 47  
[TXT]lout.README1998-01-19 17:00 1.1K 
[   ]ProgramIndex1998-05-03 16:00 28K 
[TXT]sipp.README1998-06-27 19:00 611  
[TXT]elisp-archive.README1999-01-24 11:22 835  
[   ]dumb.README1999-02-09 19:35 96  
[TXT]mule.README1999-04-26 14:32 943  
[TXT]mkid.README1999-06-01 10:05 298  
[TXT]dc.README1999-06-06 13:48 110  
[TXT]g++.README1999-06-06 13:52 389  
[TXT]netfax.README1999-06-06 14:00 127  
[TXT]objective-c.README1999-06-06 14:00 194  
[TXT]uuencode.README1999-06-06 14:01 148  
[TXT]gnome.README1999-06-21 02:12 380  
[   ]ptx.README1999-08-11 03:32 83  
[TXT]gnuchess.README1999-10-27 04:39 77  
[TXT]=README-about-.gz-files2000-01-09 06:58 1.0K 
[TXT]mm.README2000-06-05 09:53 236  
[TXT]w3.README2000-06-05 20:20 315  
[TXT]brl.README2000-11-16 08:05 420  
[TXT]=README2001-01-26 01:18 1.5K 
[TXT]dia.README2001-05-23 02:54 145  
[TXT]gnutls.README2001-11-19 00:38 171  
[TXT]dictionary.README2002-04-16 03:12 134  
[   ]gnucash.README2002-04-26 05:26 150  
[TXT]makeinfo.README2002-04-26 05:29 273  
[TXT]gnuserv.README2002-04-26 05:46 277  
[TXT]gnans.README2002-04-26 06:08 756  
[   ]ilisp.README2002-04-26 06:32 330  
[TXT]r.README2002-04-26 06:40 169  
[TXT]nana.README2002-04-26 06:43 293  
[TXT]gpc.README2002-04-27 01:10 122  
[TXT]gurgle.README2002-04-27 01:36 1.0K 
[TXT]grg.README2002-04-27 01:37 180  
[TXT]stump.README2002-04-27 03:35 227  
[TXT]webstump.README2002-04-27 03:36 227  
[   ]vms.README2002-04-27 05:19 95  
[TXT]gtk.README2002-05-02 04:20 229  
[TXT]gimp.README2002-05-02 04:24 146  
[TXT]pcb.README2002-05-14 06:24 174  
[DIR]GNUsBulletins/2003-03-25 08:00 -  
[DIR]MailingListArchives/2003-08-06 09:00 -  
[DIR]httptunnel/2003-08-06 09:08 -  
[DIR]gnustep/2004-02-18 09:04 -  
[DIR]aspell-dict-hr/2004-03-31 09:01 -  
[DIR]aspell-dict-is/2004-08-28 09:02 -  
[DIR]GNUinfo/2005-02-09 09:00 -  
[DIR]aspell-dict-csb/2005-03-12 09:00 -  
[DIR]aspell-dict-it/2005-06-03 09:01 -  
[TXT]djgpp.README2007-04-04 00:11 492  
[DIR]MicrosPorts/2007-06-22 10:27 -  
[DIR]libxmi/2007-06-22 11:05 -  
[DIR]bpel2owfn/2007-07-31 09:15 -  
[DIR]cfengine/2007-08-24 10:37 -  
[DIR]dismal/2007-08-24 11:17 -  
[DIR]dominion/2007-08-24 11:18 -  
[DIR]flex/2007-08-24 11:33 -  
[DIR]ggradebook/2007-08-24 13:33 -  
[DIR]gnatsweb/2007-08-24 13:57 -  
[DIR]gnu-crypto/2007-08-24 14:06 -  
[DIR]avl/2007-08-27 09:14 -  
[DIR]diction/2007-09-18 09:19 -  
[DIR]a2ps/2007-12-30 09:08 -  
[DIR]config/2008-02-14 09:19 -  
[DIR]ferret/2008-11-17 09:21 -  
[DIR]ddd/2009-02-12 09:21 -  
[DIR]gnugo/2009-02-20 09:34 -  
[TXT]gnat.README2009-04-02 01:25 227  
[DIR]aspell-dict-sk/2009-04-12 09:11 -  
[DIR]ballandpaddle/2009-07-16 09:16 -  
[DIR]gnukart/2010-04-27 09:39 -  
[DIR]speedx/2010-04-27 09:39 -  
[DIR]clisp/2010-07-08 09:20 -  
[DIR]aspell-dict-ga/2010-07-27 09:09 -  
[DIR]garpd/2010-12-07 09:27 -  
[DIR]acm/2010-12-09 09:08 -  
[DIR]bayonne/2011-12-19 09:17 -  
[DIR]gnash/2012-02-01 09:42 -  
[DIR]classpath/2012-03-17 09:21 -  
[DIR]gnujump/2012-07-25 09:45 -  
[TXT]smalleiffel.README2013-01-19 07:46 128  
[TXT]smarteiffel.README2013-01-19 07:46 128  
[DIR]edma/2013-03-16 09:27 -  
[DIR]cppi/2013-03-17 09:26 -  
[DIR]barcode/2013-03-30 09:17 -  
[DIR]archimedes/2013-05-01 09:09 -  
[DIR]gnuschool/2013-07-19 09:52 -  
[DIR]combine/2013-08-02 09:26 -  
[DIR]classpathx/2013-11-14 09:24 -  
[DIR]3dldf/2013-12-14 09:09 -  
[DIR]aris/2014-03-20 21:10 -  
[DIR]cursynth/2014-04-14 21:28 -  
[DIR]dap/2014-04-18 09:28 -  
[DIR]guile-opengl/2014-05-19 10:02 -  
[DIR]cim/2014-05-19 21:24 -  
[DIR]guile-rpc/2014-05-21 22:02 -  
[DIR]anubis/2014-05-24 09:09 -  
[TXT]gnupg.README2014-08-19 03:24 81  
[DIR]ccd2cue/2015-03-17 21:24 -  
[DIR]ccrtp/2015-03-30 09:24 -  
[DIR]bool/2015-05-12 09:22 -  
[DIR]gxmessage/2015-05-25 22:04 -  
[DIR]gnuspeech/2015-10-15 21:53 -  
[DIR]ccaudio/2015-12-18 09:24 -  
[DIR]ccscript/2015-12-18 09:24 -  
[DIR]commonc++/2015-12-18 09:29 -  
[DIR]commoncpp/2015-12-18 09:29 -  
[DIR]guile-gnome/2016-02-11 10:16 -  
[DIR]lilypond/2016-08-19 10:17 -  
[DIR]macchanger/2016-08-19 10:22 -  
[DIR]mc/2016-08-19 10:46 -  
[DIR]mit-scheme/2016-08-19 11:30 -  
[DIR]myserver/2016-08-19 11:40 -  
[DIR]paperclips/2016-08-19 12:41 -  
[DIR]pem/2016-08-19 12:50 -  
[DIR]pexec/2016-08-19 12:50 -  
[DIR]remotecontrol/2016-08-19 13:04 -  
[DIR]rottlog/2016-08-19 13:05 -  
[DIR]sauce/2016-08-19 13:07 -  
[DIR]savannah/2016-08-19 13:07 -  
[DIR]shmm/2016-08-19 13:16 -  
[DIR]spell/2016-08-19 13:47 -  
[DIR]superopt/2016-08-19 13:51 -  
[DIR]termcap/2016-08-19 14:02 -  
[DIR]teximpatient/2016-08-19 14:03 -  
[DIR]websocket4j/2016-08-19 14:31 -  
[DIR]windows/2016-08-19 14:36 -  
[DIR]xaos/2016-08-19 14:36 -  
[DIR]xlogmaster/2016-08-19 14:38 -  
[DIR]jtw/2016-08-31 10:12 -  
[DIR]electric/2016-11-23 09:30 -  
[DIR]8sync/2017-03-18 21:08 -  
[DIR]bc/2017-04-10 21:22 -  
[DIR]cgicc/2017-06-28 09:25 -  
[DIR]acct/2017-07-03 09:08 -  
[DIR]easejs/2017-11-08 21:28 -  
[DIR]foliot/2018-06-21 21:33 -  
[DIR]autogen/2018-11-09 21:15 -  
[DIR]c-graph/2019-08-07 21:23 -  
[DIR]cssc/2019-08-07 21:28 -  
[DIR]gnuzilla/2019-08-07 22:16 -  
[DIR]icecat/2019-08-07 22:16 -  
[DIR]orgadoc/2019-08-07 23:38 -  
[DIR]aspell/2019-10-13 09:09 -  
[DIR]adns/2020-06-18 21:08 -  
[DIR]cpio/2020-06-18 21:29 -  
[DIR]guile-debbugs/2020-06-18 22:21 -  
[DIR]enscript/2020-07-01 21:28 -  
[DIR]fdisk/2020-07-01 21:29 -  
[DIR]fisicalab/2020-07-01 21:29 -  
[DIR]fontopia/2020-07-01 21:30 -  
[DIR]fontutils/2020-07-01 21:30 -  
[DIR]freedink/2020-07-01 21:32 -  
[DIR]freefont/2020-07-01 21:34 -  
[DIR]gcal/2020-07-01 21:40 -  
[DIR]gcl/2020-07-01 22:34 -  
[DIR]gcompris/2020-07-01 22:35 -  
[DIR]gengen/2020-07-01 22:40 -  
[DIR]gengetopt/2020-07-01 22:40 -  
[DIR]gforth/2020-07-01 22:43 -  
[DIR]ghostscript/2020-07-01 22:46 -  
[DIR]gift/2020-07-01 22:46 -  
[DIR]gnats/2020-07-01 23:04 -  
[DIR]gnu-c-manual/2020-07-01 23:04 -  
[DIR]gnubatch/2020-07-01 23:06 -  
[DIR]gnubg/2020-07-01 23:07 -  
[DIR]gnubik/2020-07-01 23:07 -  
[DIR]gnucap/2020-07-01 23:07 -  
[DIR]gnudos/2020-07-01 23:07 -  
[DIR]git/2020-07-01 23:08 -  
[DIR]gnuit/2020-07-01 23:08 -  
[DIR]gnumach/2020-07-01 23:09 -  
[DIR]gnupod/2020-07-01 23:12 -  
[DIR]gnuprologjava/2020-07-01 23:12 -  
[DIR]gnuradio/2020-07-01 23:13 -  
[DIR]gnurobots/2020-07-01 23:14 -  
[DIR]gnushogi/2020-07-01 23:14 -  
[DIR]gnusound/2020-07-01 23:14 -  
[DIR]gnuspool/2020-07-01 23:14 -  
[DIR]gnutls/2020-07-01 23:19 -  
[DIR]gnutrition/2020-07-01 23:19 -  
[DIR]goptical/2020-07-02 00:48 -  
[DIR]gperf/2020-07-02 00:49 -  
[DIR]greg/2020-07-02 00:49 -  
[DIR]groff/2020-07-02 00:51 -  
[DIR]gsegrafix/2020-07-02 00:54 -  
[DIR]gslip/2020-07-02 00:55 -  
[DIR]gtypist/2020-07-02 00:57 -  
[DIR]guile-gtk/2020-07-02 01:04 -  
[DIR]gv/2020-07-02 01:14 -  
[DIR]gvpe/2020-07-02 01:14 -  
[DIR]halifax/2020-07-02 01:15 -  
[DIR]hp2xx/2020-07-02 01:20 -  
[DIR]hurd/2020-07-02 01:20 -  
[DIR]idutils/2020-07-02 01:21 -  
[DIR]ignuit/2020-07-02 01:21 -  
[DIR]indent/2020-07-02 01:21 -  
[DIR]jacal/2020-07-02 01:23 -  
[DIR]jwhois/2020-07-02 01:24 -  
[DIR]kawa/2020-07-02 01:26 -  
[DIR]libcdio/2020-07-02 01:27 -  
[DIR]libmatheval/2020-07-02 01:33 -  
[DIR]lightning/2020-07-02 01:49 -  
[DIR]liquidwar6/2020-07-02 03:54 -  
[DIR]lsh/2020-07-02 03:54 -  
[DIR]make/2020-07-02 04:01 -  
[DIR]marst/2020-07-02 04:01 -  
[DIR]maverik/2020-07-02 04:01 -  
[DIR]mcsim/2020-07-02 04:03 -  
[DIR]metahtml/2020-07-02 04:04 -  
[DIR]mifluz/2020-07-02 04:04 -  
[DIR]mig/2020-07-02 04:04 -  
[DIR]miscfiles/2020-07-02 04:04 -  
[DIR]motti/2020-07-02 04:57 -  
[DIR]mpria/2020-07-02 05:00 -  
[DIR]non-gnu/2020-07-02 05:22 -  
[DIR]oleo/2020-07-02 06:08 -  
[DIR]patch/2020-07-02 06:10 -  
[DIR]plotutils/2020-07-02 06:11 -  
[DIR]proxyknife/2020-07-02 06:11 -  
[DIR]psychosynth/2020-07-02 06:12 -  
[DIR]pth/2020-07-02 06:12 -  
[DIR]radius/2020-07-02 06:13 -  
[DIR]reftex/2020-07-02 06:15 -  
[DIR]rpge/2020-07-02 06:15 -  
[DIR]sather/2020-07-02 06:16 -  
[DIR]scm/2020-07-02 06:16 -  
[DIR]sed/2020-07-02 06:17 -  
[DIR]sharutils/2020-07-02 06:19 -  
[DIR]shtool/2020-07-02 06:20 -  
[DIR]sipwitch/2020-07-02 06:22 -  
[DIR]slib/2020-07-02 06:22 -  
[DIR]smalltalk/2020-07-02 06:23 -  
[DIR]solfege/2020-07-02 06:28 -  
[DIR]spacechart/2020-07-02 06:28 -  
[DIR]sqltutor/2020-07-02 06:28 -  
[DIR]src-highlite/2020-07-02 06:29 -  
[DIR]stow/2020-07-02 06:29 -  
[DIR]swbis/2020-07-02 06:30 -  
[DIR]termutils/2020-07-02 06:34 -  
[DIR]teseq/2020-07-02 06:34 -  
[DIR]time/2020-07-02 06:35 -  
[DIR]trueprint/2020-07-02 06:36 -  
[DIR]unrtf/2020-07-02 06:47 -  
[DIR]userv/2020-07-02 06:48 -  
[DIR]uucp/2020-07-02 06:48 -  
[DIR]vcdimager/2020-07-02 06:48 -  
[DIR]wb/2020-07-02 06:48 -  
[DIR]wdiff/2020-07-02 06:49 -  
[DIR]which/2020-07-02 06:51 -  
[DIR]xboard/2020-07-02 06:52 -  
[DIR]xnee/2020-07-02 06:52 -  
[DIR]mpfr/2020-07-11 10:43 -  
[DIR]gettext/2020-07-27 09:42 -  
[DIR]vera/2020-08-05 10:59 -  
[DIR]vc-dwim/2020-10-16 23:09 -  
[DIR]mpc/2020-10-23 22:50 -  
[DIR]emms/2020-10-28 09:30 -  
[DIR]mdk/2020-10-31 22:48 -  
[DIR]gmp/2020-11-15 09:47 -  
[DIR]complexity/2020-11-23 09:26 -  
[DIR]gnu-pw-mgr/2020-11-23 09:49 -  
[DIR]jel/2020-11-29 22:14 -  
[DIR]glpk/2020-12-17 09:47 -  
[DIR]gnucobol/2020-12-24 09:49 -  
[DIR]libextractor/2021-01-31 10:16 -  
[DIR]xorriso/2021-02-06 23:16 -  
[DIR]apl/2021-02-12 09:09 -  
[DIR]tar/2021-02-13 23:06 -  
[DIR]intlfonts/2021-03-13 10:47 -  
[DIR]dico/2021-04-27 21:28 -  
[DIR]gcide/2021-04-27 21:45 -  
[DIR]zile/2021-05-05 11:10 -  
[DIR]autoconf/2021-05-08 21:13 -  
[DIR]guix/2021-05-12 10:54 -  
[DIR]m4/2021-05-29 10:45 -  
[DIR]grub/2021-06-09 10:10 -  
[DIR]libffcall/2021-06-14 10:15 -  
[DIR]dejagnu/2021-06-17 21:27 -  
[DIR]gprolog/2021-07-08 22:08 -  
[DIR]chess/2021-07-14 09:23 -  
[DIR]less/2021-07-20 22:15 -  
[DIR]diffutils/2021-08-02 21:28 -  
[DIR]mcron/2021-08-05 22:48 -  
[DIR]bison/2021-09-25 21:22 -  
[DIR]taler/2021-09-27 23:06 -  
[DIR]linux-libre/2021-09-29 10:19 -  
[DIR]automake/2021-10-04 21:17 -  
[DIR]ncurses/2021-11-09 10:28 -  
[DIR]guile-cv/2021-11-16 10:11 -  
[DIR]gsrc/2021-11-20 22:10 -  
[DIR]osip/2021-11-23 10:33 -  
[DIR]gsl/2021-12-01 22:09 -  
[DIR]gnun/2021-12-13 09:49 -  
[DIR]mailman/2021-12-14 10:20 -  
[DIR]global/2021-12-17 21:46 -  
[DIR]alive/2022-01-02 21:08 -  
[DIR]artanis/2022-01-02 21:09 -  
[DIR]cflow/2022-01-02 21:23 -  
[DIR]direvent/2022-01-02 21:28 -  
[DIR]libmicrohttpd/2022-01-02 22:16 -  
[DIR]serveez/2022-01-02 22:36 -  
[DIR]libunistring/2022-01-05 10:20 -  
[DIR]libsigsegv/2022-01-08 10:18 -  
[DIR]ocrad/2022-01-18 10:32 -  
[DIR]moe/2022-01-21 10:27 -  
[DIR]ddrescue/2022-01-22 09:28 -  
[DIR]screen/2022-02-02 10:36 -  
[DIR]findutils/2022-02-02 21:31 -  
[DIR]rcs/2022-02-03 22:36 -  
[DIR]ed/2022-02-05 09:29 -  
[DIR]gdbm/2022-02-05 09:45 -  
[DIR]libredwg/2022-02-07 10:19 -  
[DIR]Licenses/2022-02-11 21:08 -  
[DIR]guile/2022-02-11 22:13 -  
[DIR]auctex/2022-02-21 09:14 -  
[DIR]guile-sdl/2022-02-21 10:13 -  
[DIR]denemo/2022-03-12 09:29 -  
[DIR]libtool/2022-03-17 22:21 -  
[DIR]gzip/2022-04-08 10:20 -  
[DIR]help2man/2022-04-11 22:22 -  
[DIR]coreutils/2022-04-16 09:30 -  
[DIR]recutils/2022-04-17 10:44 -  
[DIR]mailutils/2022-04-18 10:27 -  
[DIR]gdb/2022-05-02 09:49 -  
[DIR]hyperbole/2022-05-02 10:24 -  
[DIR]mes/2022-05-03 10:33 -  
[DIR]libiconv/2022-05-16 10:20 -  
[DIR]wget/2022-05-27 23:06 -  
[DIR]hello/2022-05-30 10:15 -  
[DIR]freetalk/2022-06-10 09:32 -  
[DIR]health/2022-06-17 10:21 -  
[DIR]tramp/2022-06-29 22:50 -  
[DIR]pspp/2022-07-02 22:37 -  
[DIR]inetutils/2022-07-08 22:19 -  
[DIR]libidn/2022-07-12 10:19 -  
[DIR]rush/2022-07-17 10:38 -  
[DIR]gwl/2022-07-21 22:15 -  
[DIR]librejs/2022-07-21 22:22 -  
[DIR]gnuastro/2022-07-22 09:51 -  
[DIR]datamash/2022-07-24 09:29 -  
[DIR]poke/2022-07-26 10:40 -  
[DIR]jami/2022-07-27 22:20 -  
[DIR]parted/2022-07-27 22:44 -  
[DIR]nettle/2022-07-28 10:32 -  
[DIR]octave/2022-07-30 10:37 -  
[DIR]glibc/2022-08-02 21:49 -  
[DIR]libc/2022-08-02 21:49 -  
[DIR]nano/2022-08-02 22:34 -  
[DIR]binutils/2022-08-05 21:22 -  
[DIR]gss/2022-08-07 22:14 -  
[DIR]shishi/2022-08-07 22:43 -  
[DIR]pies/2022-08-13 22:37 -  
[DIR]gcc/2022-08-19 21:35 -  
[DIR]libtasn1/2022-08-24 10:21 -  
[DIR]freeipmi/2022-09-01 09:33 -  
[DIR]grep/2022-09-03 22:12 -  
[DIR]autoconf-archive/2022-09-04 09:14 -  
[DIR]gsasl/2022-09-04 10:13 -  
[DIR]gawk/2022-09-05 09:34 -  
[DIR]units/2022-09-06 10:50 -  
[DIR]shepherd/2022-09-11 10:39 -  
[DIR]emacs/2022-09-12 21:32 -  
[DIR]gama/2022-09-13 09:33 -  
[DIR]unifont/2022-09-14 10:52 -  
[DIR]guile-ncurses/2022-09-15 10:14 -  
[DIR]mtools/2022-09-19 10:29 -  
[DIR]texinfo/2022-09-22 10:45 -  
[DIR]parallel/2022-09-23 10:38 -  
[DIR]gnunet/2022-09-26 21:53 -  
[DIR]anastasis/2022-09-27 09:09 -  
[DIR]bash/2022-09-27 09:21 -  
[DIR]readline/2022-09-27 10:40 -  
[   ]gnu-keyring.gpg2022-10-02 09:22 2.6M 
[TXT]mirror-updated-timestamp.txt2022-10-02 10:16 11